Regional Weather Roundup
Issued by NWS

Home | Current Version | Previous Version | Text Only | Print | Product List | Glossary On
Versions: 1 2 3 4 5 6 7 8 9 10 11 12 13 14 15 16 17 18 19 20 21 22 23 24 25 26 27 28 29 30 31 32 33 34 35 36 37 38 39 40 41 42 43 44 45 46 47 48 49 50
000
ASUS42 KFFC 240203
RWRGA
WEATHER ROUNDUP FOR GEORGIA
NATIONAL WEATHER SERVICE PEACHTREE CITY GA
1000 PM EDT SAT SEP 23 2017

NOTE: "FAIR" INDICATES FEW OR NO CLOUDS BELOW 12,000 FEET WITH NO
SIGNIFICANT WEATHER AND/OR OBSTRUCTIONS TO VISIBILITY.

* = USE WITH CAUTION. THE STATIONS MARKED WITH AN ASTERISK MAY NOT
REPORT WEATHER SUCH AS PRECIPITATION, FOG, OR THUNDER AND ARE NOT
QUALITY CONTROLLED BY NWS.

THE REMARK "TC" DENOTES TEMPERATURE READING IN DEGREES CELSIUS.

GAZ001>058-240300-
NORTH GEORGIA

CITY           SKY/WX    TMP DP  RH WIND       PRES   REMARKS
ATLANTA        PTCLDY    78  64  61 E3        30.03S
ATHENS         CLEAR     69  66  90 NE3       30.04S
CHAMBLEE       CLEAR     73  63  70 N5        30.04S
PEACHTREE CITY CLEAR     70  68  93 CALM      30.03S
ROME           CLEAR     72  69  90 NE3       30.03R
WEST ATLANTA   CLEAR     71  67  87 N3        30.03S
GAINESVILLE    CLEAR     74  62  66 E5        30.08S
CARTERSVILLE   CLEAR     67  67 100 CALM      30.05R


CITY           SKY/WX    TMP DP  RH WIND       PRES   REMARKS
DALTON*        PTCLDY    68  68 100 CALM      30.06R
MARIETTA       PTCLDY    73  64  73 NE5       30.04S
KENNESAW*      CLEAR     72  65  78 CALM      30.06R
CANTON*        CLEAR     70  70 100 CALM      30.07S
$$

GAZ059>098-102>109-240300-
CENTRAL GEORGIA

CITY           SKY/WX    TMP DP  RH WIND       PRES   REMARKS
AUGUSTA-BUSH   CLEAR     72  69  90 CALM      30.00S
AUGUSTA-DANIEL CLEAR     81  65  58 E3        30.02S
COLUMBUS       CLEAR     80  65  59 E6        29.98S
MACON          CLEAR     71  69  93 CALM      30.00S
ROBINS AFB     CLEAR     73  69  90 CALM      29.99S


CITY           SKY/WX    TMP DP  RH WIND       PRES   REMARKS
LAGRANGE*      CLEAR     71  70  98 CALM      30.01S
SYLVANIA*      CLEAR     72  71  98 CALM      30.02S
MILLEDGEVILLE* PTCLDY    73  72  94 CALM      30.01S
$$

GAZ099>101-110>166-240300-
SOUTH GEORGIA

CITY           SKY/WX    TMP DP  RH WIND       PRES   REMARKS
SAVANNAH       CLEAR     76  71  85 E7        30.00S
VALDOSTA       CLEAR     74  70  87 NE3       29.98R
ALMA           CLEAR     73  70  90 CALM      29.99R
ST SIMONS      PTCLDY    80  72  76 NE12G20   29.96F
FT STEWART     CLEAR     71  68  91 CALM      29.97S
ALBANY         CLEAR     78  69  73 E8        30.00R
HUNTER AFB     CLEAR     76  71  85 NE5       29.97S
MOODY AFB      CLEAR     73  70  90 N5        29.98R
BRUNSWICK      PTCLDY    75  70  83 NE6       29.98S


CITY           SKY/WX    TMP DP  RH WIND       PRES   REMARKS
BAINBRIDGE*    CLOUDY    77  72  83 E6        29.96S
MOULTRIE*      MOCLDY    77  70  78 CALM      30.00R
VIDALIA*       CLOUDY    77  70  78 SE3       30.00S
WAYCROSS*      CLEAR     75  72  91 NE3       29.98S
DOUGLAS*       CLEAR     73  68  83 E3        30.01R
$$




USA.gov is the U.S. government's official web portal to all federal, state and local government web resources and services.